Location: ????????
(55.6333°N, 37.7000°E)
Time: 16:55:44
(UTC+00:00)

ARIANE 5 R/B - Pass Details

Date: 19 May 2025
Orbit: 614 x 648 km, 98.0° (Epoch: 16 June)

Event Time Altitude Azimuth Distance (km) Brightness Sun altitude
Exits shadow 19:46:30 16° 143° (SE) 1,619 4.1 -11.5°
Maximum altitude 19:49:48 57° 68° (ENE) 740 2.9 -11.7°
Drops below altitude 10° 19:54:05 10° 351° (N) 2,012 6.6 -11.9°
Sets 19:56:19 0° 347° (NNW) 2,929 8.0 -12.1°
